TimeEST,TemperatureF,Dew PointF,Humidity,Sea Level PressureIn,VisibilityMPH,Wind Direction,Wind SpeedMPH,Gust SpeedMPH,PrecipitationIn,Events,Conditions,WindDirDegrees,DateUTC
12:12 AM,39.2,33.8,81,29.93,6.0,SE,10.4,-,0.00,Rain,Light Rain,130,2012-11-07 05:12:00
12:54 AM,39.0,33.1,79,29.95,8.0,SE,8.1,-,0.00,Rain,Light Rain,130,2012-11-07 05:54:00
1:54 AM,37.9,32.0,79,29.94,9.0,ESE,6.9,-,0.00,,Overcast,110,2012-11-07 06:54:00
2:54 AM,37.9,30.9,76,29.95,10.0,East,5.8,-,N/A,,Overcast,100,2012-11-07 07:54:00
3:54 AM,37.9,30.9,76,29.96,9.0,East,5.8,-,0.00,Rain,Light Rain,90,2012-11-07 08:54:00
4:54 AM,37.0,30.9,79,29.97,7.0,East,6.9,-,0.00,,Overcast,90,2012-11-07 09:54:00
5:54 AM,37.0,30.9,79,29.99,8.0,East,9.2,-,N/A,,Overcast,80,2012-11-07 10:54:00
6:54 AM,37.0,30.9,79,30.00,7.0,East,6.9,-,0.00,,Overcast,80,2012-11-07 11:54:00
7:54 AM,37.0,30.9,79,30.02,7.0,ENE,5.8,-,N/A,,Overcast,70,2012-11-07 12:54:00
8:54 AM,39.0,32.0,76,30.05,7.0,East,9.2,-,N/A,,Partly Cloudy,90,2012-11-07 13:54:00
9:54 AM,42.1,33.1,70,30.06,8.0,East,9.2,-,N/A,,Mostly Cloudy,90,2012-11-07 14:54:00
10:54 AM,44.1,34.0,68,30.08,9.0,North,-9999.0,-,N/A,,Overcast,0,2012-11-07 15:54:00
11:54 AM,-9999,-9999,N/A,30.07,10.0,North,-9999.0,-,N/A,,Overcast,0,2012-11-07 16:54:00
12:54 PM,46.9,30.0,52,30.08,-9999.0,Variable,3.5,-,N/A,,Mostly Cloudy,0,2012-11-07 17:54:00
1:54 PM,48.9,32.0,52,30.07,10.0,Calm,Calm,-,N/A,,Mostly Cloudy,0,2012-11-07 18:54:00
2:54 PM,48.9,32.0,52,30.07,10.0,NNE,6.9,-,N/A,,Mostly Cloudy,30,2012-11-07 19:54:00
3:54 PM,48.9,32.0,52,30.09,10.0,NW,8.1,-,N/A,,Scattered Clouds,320,2012-11-07 20:54:00
4:54 PM,46.9,32.0,56,30.10,10.0,North,5.8,-,N/A,,Clear,360,2012-11-07 21:54:00
5:54 PM,42.1,33.1,70,30.12,10.0,NNW,6.9,-,N/A,,Clear,340,2012-11-07 22:54:00
6:54 PM,37.9,32.0,79,30.13,10.0,NNW,4.6,-,N/A,,Clear,340,2012-11-07 23:54:00
7:54 PM,35.1,30.0,82,30.15,9.0,NNW,4.6,-,N/A,,Clear,340,2012-11-08 00:54:00
8:54 PM,36.0,32.0,86,30.16,8.0,NNW,5.8,-,N/A,,Clear,340,2012-11-08 01:54:00
9:54 PM,34.0,30.0,85,30.18,7.0,NNE,3.5,-,N/A,,Clear,20,2012-11-08 02:54:00
10:54 PM,33.1,28.9,85,30.18,7.0,North,3.5,-,N/A,,Clear,350,2012-11-08 03:54:00
11:54 PM,32.0,28.0,85,30.15,7.0,Calm,Calm,-,N/A,,Clear,0,2012-11-08 04:54:00